This is the latest recevied weather packets stored in our database for station/object K7AEL. If no packets are shown the sender has not sent any weather packets the latest 10 day(s).
| Time | Temp. | Humidity | Pressure | Rain* | Wind** | Luminosity | Snow |
|---|---|---|---|---|---|---|---|
| 1777613594 | 20.56° C | 45% | 1012.1 hPa | 0 mm | - | 0 W/m² | - |
| 1777613291 | 20.56° C | 43% | 1012.1 hPa | 0 mm | - | 0 W/m² | - |
| 1777612988 | 20.56° C | 42% | 1012.2 hPa | 0 mm | - | 0 W/m² | - |
| 1777612684 | 20.56° C | 43% | 1012.1 hPa | 0 mm | - | 0 W/m² | - |
| 1777612380 | 20.56° C | 42% | 1012 hPa | 0 mm | - | 0 W/m² | - |
| 1777612075 | 20.56° C | 42% | 1011.9 hPa | 0 mm | - | 0 W/m² | - |
| 1777611770 | 20.56° C | 42% | 1011.8 hPa | 0 mm | - | 0 W/m² | - |
| 1777611467 | 21.11° C | 43% | 1011.8 hPa | 0 mm | - | 0 W/m² | - |
| 1777611164 | 21.11° C | 46% | 1011.8 hPa | 0 mm | - | 0 W/m² | - |
| 1777610858 | 21.11° C | 45% | 1011.7 hPa | 0 mm | - | 0 W/m² | - |
| 1777610555 | 21.11° C | 44% | 1011.4 hPa | 0 mm | - | 0 W/m² | - |
| 1777610249 | 21.11° C | 43% | 1011.1 hPa | 0 mm | - | 0 W/m² | - |
| 1777609947 | 21.11° C | 43% | 1011.2 hPa | 0 mm | - | 0 W/m² | - |
| 1777609642 | 21.11° C | 45% | 1011.2 hPa | 0 mm | - | 0 W/m² | - |
| 1777609340 | 21.67° C | 45% | 1011 hPa | 0 mm | - | 0 W/m² | - |
| 1777609037 | 21.67° C | 45% | 1010.9 hPa | 0 mm | - | 0 W/m² | - |
| 1777608735 | 21.67° C | 45% | 1010.8 hPa | 0 mm | - | 0 W/m² | - |
| 1777608431 | 21.67° C | 45% | 1010.6 hPa | 0 mm | - | 0 W/m² | - |
| 1777608129 | 21.11° C | 45% | 1010.5 hPa | 0 mm | - | 0 W/m² | - |
| 1777607825 | 21.11° C | 46% | 1010.7 hPa | 0 mm | - | 0 W/m² | - |
| 1777607522 | 21.11° C | 46% | 1010.4 hPa | 0 mm | - | 0 W/m² | - |
| 1777607218 | 21.11° C | 46% | 1010.4 hPa | 0 mm | - | 0 W/m² | - |
| 1777606914 | 21.11° C | 46% | 1010.3 hPa | 0 mm | - | 0 W/m² | - |
| 1777606610 | 21.11° C | 46% | 1010.1 hPa | 0 mm | - | 0 W/m² | - |
| 1777606305 | 21.67° C | 45% | 1009.9 hPa | 0 mm | - | 0 W/m² | - |
* Rain latest hour (hover to see other rain measurements)
** Current wind speed in m/s (hover to see current wind gust speed)